| time (UTC) | temp C | wind direction | speed KPH | gust KPH | rain 1hr cm | rain 24hr cm | rain mn cm | humidity % | barometer mb |
| 20260502170138 | 21 | 51 | 3.2 | 6.4 | 0.00 | 0.00 | 0.00 | 48 | 1022.6 |
| 20260502164124 | 21 | 44 | 3.2 | 11.3 | 0.00 | 0.00 | 0.00 | 46 | 1022.6 |
| 20260502163620 | 21 | 242 | 1.6 | 4.8 | 0.00 | 0.00 | 0.00 | 48 | 1022.7 |
| 20260502163117 | 21 | 345 | 4.8 | 6.4 | 0.00 | 0.00 | 0.00 | 52 | 1022.7 |
| 20260502162614 | 20 | 333 | 3.2 | 9.7 | 0.00 | 0.00 | 0.00 | 54 | 1022.5 |
| 20260502162111 | 20 | 122 | 0.0 | 6.4 | 0.00 | 0.00 | 0.00 | 52 | 1022.6 |
| 20260502161608 | 20 | 138 | 6.4 | 9.7 | 0.00 | 0.00 | 0.00 | 55 | 1022.7 |
| 20260502161105 | 21 | 52 | 12.9 | 14.5 | 0.00 | 0.00 | 0.00 | 51 | 1022.5 |
| 20260502160603 | 21 | 92 | 1.6 | 6.4 | 0.00 | 0.00 | 0.00 | 52 | 1022.4 |
| 20260502152016 | 19 | 134 | 4.8 | 9.7 | 0.00 | 0.00 | 0.00 | 60 | 1022.1 |
| 20260502151513 | 20 | 129 | 8.0 | 8.0 | 0.00 | 0.00 | 0.00 | 58 | 1021.7 |
| 20260502151010 | 20 | 123 | 0.0 | 6.4 | 0.00 | 0.00 | 0.00 | 64 | 1022.1 |
| 20260502150508 | 19 | 47 | 0.0 | 4.8 | 0.00 | 0.00 | 0.00 | 64 | 1022.1 |
| 20260502130352 | 13 | 333 | 1.6 | 4.8 | 0.00 | 0.00 | 0.00 | 95 | 1021.5 |
| 20260502123335 | 11 | 234 | 0.0 | 1.6 | 0.00 | 0.00 | 0.00 | 98 | 1020.9 |
| 20260502122832 | 11 | 257 | 0.0 | 3.2 | 0.00 | 0.00 | 0.00 | 98 | 1020.6 |
| 20260502122328 | 10 | 166 | 0.0 | 1.6 | 0.00 | 0.00 | 0.00 | 98 | 1020.6 |
| 20260502121827 | 10 | 164 | 0.0 | 1.6 | 0.00 | 0.00 | 0.00 | 98 | 1020.5 |
| 20260502121324 | 10 | 293 | 0.0 | 1.6 | 0.00 | 0.00 | 0.00 | 98 | 1020.3 |
| 20260502120820 | 10 | 119 | 0.0 | 3.2 | 0.00 | 0.00 | 0.00 | 98 | 1020.1 |
| 20260502120317 | 10 | 168 | 0.0 | 1.6 | 0.00 | 0.00 | 0.00 | 98 | 1020.1 |
| 20260502115815 | 10 | 72 | 0.0 | 1.6 | 0.00 | 0.00 | 0.00 | 97 | 1019.7 |
| 20260502115312 | 10 | 89 | 0.0 | 1.6 | 0.00 | 0.00 | 0.00 | 97 | 1019.9 |
| 20260502114808 | 10 | 156 | 0.0 | 3.2 | 0.00 | 0.00 | 0.00 | 97 | 1019.9 |
| 20260502114304 | 10 | 267 | 0.0 | 3.2 | 0.00 | 0.00 | 0.00 | 98 | 1019.6 |
| 20260502113802 | 10 | 303 | 0.0 | 3.2 | 0.00 | 0.00 | 0.00 | 98 | 1019.6 |
| 20260502113259 | 10 | 73 | 3.2 | 3.2 | 0.00 | 0.00 | 0.00 | 97 | 1019.8 |
| 20260502112757 | 10 | 325 | 0.0 | 1.6 | 0.00 | 0.00 | 0.00 | 97 | 1019.7 |
| 20260502112255 | 10 | 62 | 1.6 | 3.2 | 0.00 | 0.00 | 0.00 | 97 | 1019.5 |
| 20260502111751 | 10 | 257 | 0.0 | 3.2 | 0.05 | 0.00 | 0.00 | 97 | 1019.4 |
| 20260502111249 | 10 | 69 | 0.0 | 1.6 | 0.05 | 0.00 | 0.00 | 97 | 1019.4 |
| 20260502110746 | 10 | 210 | 1.6 | 3.2 | 0.00 | 0.00 | 0.00 | 97 | 1019.3 |
| 20260502110244 | 10 | 148 | 0.0 | 0.0 | 0.00 | 0.00 | 0.00 | 97 | 1019.3 |
| 20260502105742 | 10 | 217 | 1.6 | 3.2 | 0.00 | 0.00 | 0.00 | 97 | 1019.4 |
| 20260502105238 | 11 | 54 | 0.0 | 3.2 | 0.00 | 0.00 | 0.00 | 97 | 1019.2 |
| 20260502104736 | 11 | 167 | 0.0 | 1.6 | 0.00 | 0.00 | 0.00 | 97 | 1019.1 |
| 20260502104233 | 11 | 230 | 1.6 | 1.6 | 0.00 | 0.00 | 0.00 | 97 | 1019.0 |
| 20260502103731 | 11 | 172 | 3.2 | 3.2 | 0.00 | 0.00 | 0.00 | 97 | 1019.3 |
| 20260502103228 | 11 | 181 | 0.0 | 1.6 | 0.00 | 0.00 | 0.00 | 97 | 1019.2 |
| 20260502102725 | 11 | 225 | 1.6 | 3.2 | 0.00 | 0.00 | 0.00 | 97 | 1019.4 |
| 20260502102221 | 11 | 269 | 0.0 | 3.2 | 0.00 | 0.00 | 0.00 | 97 | 1019.1 |
| 20260502101720 | 11 | 102 | 0.0 | 1.6 | 0.00 | 0.00 | 0.00 | 96 | 1018.8 |
| 20260502101218 | 11 | 166 | 0.0 | 1.6 | 0.00 | 0.00 | 0.00 | 96 | 1019.0 |
| 20260502100715 | 11 | 70 | 1.6 | 1.6 | 0.00 | 0.00 | 0.00 | 96 | 1018.7 |
| 20260502100214 | 11 | 218 | 0.0 | 1.6 | 0.00 | 0.00 | 0.00 | 96 | 1018.6 |
| 20260502091147 | 11 | 218 | 0.0 | 3.2 | 0.00 | 0.00 | 0.00 | 96 | 1018.6 |
| 20260502090645 | 11 | 141 | 0.0 | 0.0 | 0.00 | 0.00 | 0.00 | 96 | 1018.5 |
| 20260502090142 | 12 | 130 | 0.0 | 0.0 | 0.00 | 0.00 | 0.00 | 96 | 1018.8 |
| 20260502080104 | 12 | 62 | 1.6 | 1.6 | 0.00 | 0.00 | 0.00 | 95 | 1018.7 |
| 20260502071037 | 12 | 113 | 0.0 | 1.6 | 0.00 | 0.00 | 0.00 | 96 | 1018.6 |
| 20260502070535 | 12 | 339 | 0.0 | 1.6 | 0.00 | 0.00 | 0.00 | 96 | 1018.7 |
| 20260502070033 | 12 | 245 | 0.0 | 0.0 | 0.00 | 0.00 | 0.00 | 97 | 1018.8 |
| 20260502065531 | 12 | 73 | 0.0 | 1.6 | 0.00 | 0.00 | 0.00 | 97 | 1018.8 |
| 20260502065028 | 12 | 12 | 0.0 | 1.6 | 0.00 | 0.00 | 0.00 | 97 | 1018.6 |
| 20260502064527 | 12 | 341 | 0.0 | 1.6 | 0.00 | 0.00 | 0.00 | 97 | 1018.6 |
| 20260502064024 | 12 | 50 | 0.0 | 1.6 | 0.00 | 0.00 | 0.00 | 97 | 1018.8 |
| 20260502063521 | 12 | 202 | 0.0 | 1.6 | 0.00 | 0.00 | 0.00 | 97 | 1018.8 |
| 20260502063019 | 12 | 290 | 0.0 | 3.2 | 0.00 | 0.00 | 0.00 | 97 | 1018.8 |
| 20260502062516 | 12 | 63 | 1.6 | 3.2 | 0.00 | 0.00 | 0.00 | 98 | 1018.7 |
| 20260502062015 | 12 | 103 | 0.0 | 3.2 | 0.00 | 0.00 | 0.00 | 98 | 1018.7 |
| 20260502061512 | 12 | 73 | 0.0 | 3.2 | 0.00 | 0.00 | 0.00 | 98 | 1018.8 |
| 20260502061009 | 12 | 33 | 0.0 | 3.2 | 0.00 | 0.00 | 0.00 | 98 | 1018.9 |
| 20260502060503 | 12 | 52 | 0.0 | 1.6 | 0.00 | 0.00 | 0.00 | 98 | 1019.1 |
| 20260502060000 | 12 | 19 | 0.0 | 0.0 | 0.00 | 0.00 | 0.00 | 98 | 1019.0 |
| 20260502055458 | 12 | 44 | 0.0 | 3.2 | 0.00 | 0.00 | 0.00 | 98 | 1018.9 |
| 20260502054957 | 12 | 55 | 0.0 | 0.0 | 0.00 | 0.00 | 0.00 | 98 | 1019.0 |
| 20260502054455 | 12 | 7 | 4.8 | 4.8 | 0.00 | 0.00 | 0.00 | 98 | 1019.0 |
| 20260502053952 | 12 | 246 | 0.0 | 1.6 | 0.00 | 0.00 | 0.00 | 98 | 1019.0 |
| 20260502053449 | 12 | 185 | 0.0 | 1.6 | 0.00 | 0.00 | 0.00 | 98 | 1018.8 |
| 20260502052947 | 12 | 66 | 0.0 | 0.0 | 0.00 | 0.00 | 0.00 | 98 | 1018.8 |
| 20260502052444 | 12 | 57 | 0.0 | 1.6 | 0.00 | 0.00 | 0.00 | 98 | 1018.8 |
| 20260502051943 | 12 | 191 | 0.0 | 0.0 | 0.00 | 0.00 | 0.00 | 98 | 1018.9 |
| 20260502051441 | 12 | 157 | 0.0 | 1.6 | 0.00 | 0.00 | 0.00 | 98 | 1018.6 |
| 20260502050937 | 12 | 249 | 0.0 | 1.6 | 0.00 | 0.00 | 0.00 | 98 | 1018.8 |
| 20260502050434 | 12 | 309 | 0.0 | 3.2 | 0.00 | 0.00 | 0.00 | 98 | 1018.7 |
| 20260502045931 | 12 | 44 | 0.0 | 3.2 | 0.00 | 1.02 | 1.02 | 98 | 1018.9 |
| 20260502045428 | 12 | 89 | 0.0 | 1.6 | 0.00 | 1.02 | 1.02 | 98 | 1018.7 |
| 20260502044925 | 12 | 224 | 0.0 | 0.0 | 0.00 | 1.02 | 1.02 | 98 | 1018.6 |
| 20260502044420 | 12 | 246 | 0.0 | 0.0 | 0.00 | 1.02 | 1.02 | 97 | 1018.6 |
| 20260502043918 | 12 | 110 | 0.0 | 0.0 | 0.00 | 1.02 | 1.02 | 97 | 1018.6 |
| 20260502043416 | 12 | 22 | 0.0 | 0.0 | 0.00 | 1.02 | 1.02 | 97 | 1018.6 |
| 20260502042915 | 12 | 44 | 0.0 | 0.0 | 0.00 | 1.02 | 1.02 | 97 | 1018.6 |
| 20260502042413 | 12 | 116 | 0.0 | 0.0 | 0.00 | 1.02 | 1.02 | 97 | 1018.5 |
| 20260502041909 | 12 | 116 | 0.0 | 0.0 | 0.00 | 1.02 | 1.02 | 97 | 1018.3 |
| 20260502041407 | 12 | 185 | 0.0 | 0.0 | 0.00 | 1.02 | 1.02 | 97 | 1018.2 |
| 20260502040904 | 12 | 237 | 0.0 | 0.0 | 0.00 | 1.02 | 1.02 | 97 | 1018.3 |
| 20260502040400 | 12 | 103 | 0.0 | 0.0 | 0.00 | 1.02 | 1.02 | 97 | 1018.4 |
| 20260502035856 | 12 | 44 | 0.0 | 0.0 | 0.00 | 1.02 | 1.02 | 97 | 1018.3 |
| 20260502035353 | 12 | 82 | 0.0 | 0.0 | 0.00 | 1.02 | 1.02 | 97 | 1018.4 |
| 20260502034851 | 12 | 89 | 0.0 | 0.0 | 0.00 | 1.02 | 1.02 | 97 | 1018.1 |
| 20260502034349 | 12 | 336 | 0.0 | 0.0 | 0.00 | 1.02 | 1.02 | 97 | 1018.2 |
| 20260502033847 | 12 | 359 | 0.0 | 0.0 | 0.00 | 1.02 | 1.02 | 97 | 1018.2 |
| 20260502033345 | 12 | 180 | 0.0 | 0.0 | 0.00 | 1.02 | 1.02 | 97 | 1018.1 |
| 20260502032841 | 12 | 180 | 0.0 | 1.6 | 0.00 | 1.02 | 1.02 | 97 | 1018.0 |
| 20260502032337 | 13 | 131 | 0.0 | 0.0 | 0.00 | 1.02 | 1.02 | 97 | 1017.9 |
| 20260502031835 | 13 | 147 | 0.0 | 3.2 | 0.00 | 1.02 | 1.02 | 97 | 1017.9 |
| 20260502031333 | 12 | 161 | 1.6 | 1.6 | 0.00 | 1.02 | 1.02 | 97 | 1018.2 |
| 20260502030831 | 13 | 232 | 0.0 | 0.0 | 0.00 | 1.02 | 1.02 | 97 | 1018.0 |
| 20260502030329 | 13 | 256 | 0.0 | 1.6 | 0.00 | 1.02 | 1.02 | 97 | 1018.0 |
| 20260502025826 | 13 | 32 | 0.0 | 0.0 | 0.00 | 1.02 | 1.02 | 97 | 1018.1 |
| 20260502025324 | 13 | 30 | 0.0 | 3.2 | 0.00 | 1.02 | 1.02 | 97 | 1017.9 |
| 20260502024822 | 13 | 124 | 0.0 | 3.2 | 0.05 | 1.02 | 1.02 | 97 | 1017.6 |
| 20260502024319 | 13 | 18 | 1.6 | 3.2 | 0.05 | 1.02 | 1.02 | 97 | 1017.7 |
| 20260502023817 | 13 | 84 | 1.6 | 3.2 | 0.00 | 1.02 | 1.02 | 97 | 1017.5 |
| 20260502023315 | 13 | 172 | 0.0 | 1.6 | 0.00 | 1.02 | 1.02 | 97 | 1017.7 |
| 20260502022813 | 13 | 130 | 1.6 | 3.2 | 0.00 | 1.02 | 1.02 | 97 | 1017.9 |
| 20260502022308 | 13 | 136 | 1.6 | 3.2 | 0.00 | 1.02 | 1.02 | 97 | 1018.1 |
| 20260502021805 | 13 | 126 | 0.0 | 0.0 | 0.00 | 1.02 | 1.02 | 96 | 1018.5 |
| 20260502021303 | 13 | 135 | 0.0 | 0.0 | 0.00 | 1.02 | 1.02 | 96 | 1018.5 |
| 20260502020759 | 13 | 193 | 0.0 | 1.6 | 0.00 | 1.02 | 1.02 | 96 | 1018.3 |
| 20260502020257 | 13 | 187 | 1.6 | 1.6 | 0.00 | 1.02 | 1.02 | 96 | 1017.8 |
| 20260502015754 | 13 | 189 | 1.6 | 1.6 | 0.00 | 1.02 | 1.02 | 96 | 1017.6 |
| 20260502015250 | 13 | 114 | 0.0 | 3.2 | 0.00 | 1.02 | 1.02 | 96 | 1017.6 |
| 20260502014748 | 13 | 153 | 1.6 | 3.2 | 0.00 | 1.02 | 1.02 | 95 | 1017.5 |
| 20260502014245 | 13 | 249 | 0.0 | 0.0 | 0.00 | 1.02 | 1.02 | 95 | 1017.8 |
| 20260502013741 | 13 | 55 | 0.0 | 0.0 | 0.00 | 1.02 | 1.02 | 95 | 1017.4 |
| 20260502013236 | 13 | 103 | 0.0 | 1.6 | 0.00 | 1.02 | 1.02 | 95 | 1017.2 |
| 20260502012734 | 13 | 249 | 0.0 | 0.0 | 0.00 | 1.02 | 1.02 | 95 | 1016.9 |
| 20260502012232 | 13 | 299 | 0.0 | 0.0 | 0.00 | 1.02 | 1.02 | 95 | 1016.8 |
| 20260502011729 | 13 | 78 | 1.6 | 3.2 | 0.00 | 1.02 | 1.02 | 95 | 1016.8 |
| 20260502011224 | 13 | 58 | 1.6 | 3.2 | 0.00 | 1.02 | 1.02 | 95 | 1016.9 |
| 20260502010722 | 13 | 86 | 0.0 | 3.2 | 0.00 | 1.02 | 1.02 | 95 | 1017.1 |
| 20260502010218 | 13 | 0 | 0.0 | 0.0 | 0.00 | 1.02 | 1.02 | 95 | 1017.3 |
| 20260502005715 | 13 | 269 | 0.0 | 0.0 | 0.00 | 1.02 | 1.02 | 95 | 1017.3 |
| 20260502005213 | 13 | 243 | 0.0 | 1.6 | 0.00 | 1.02 | 1.02 | 94 | 1017.0 |
| 20260502004709 | 13 | 6 | 0.0 | 1.6 | 0.00 | 1.02 | 1.02 | 94 | 1016.7 |
| 20260502004206 | 13 | 91 | 3.2 | 4.8 | 0.00 | 1.02 | 1.02 | 94 | 1016.7 |
| 20260502003704 | 13 | 6 | 1.6 | 1.6 | 0.00 | 1.02 | 1.02 | 94 | 1017.2 |
| 20260502003201 | 13 | 15 | 0.0 | 1.6 | 0.00 | 1.02 | 1.02 | 94 | 1017.2 |
| 20260502002656 | 13 | 9 | 1.6 | 1.6 | 0.00 | 1.02 | 1.02 | 93 | 1017.1 |
| 20260502002155 | 13 | 129 | 0.0 | 1.6 | 0.05 | 1.02 | 1.02 | 93 | 1017.1 |
| 20260502001652 | 13 | 129 | 0.0 | 0.0 | 0.05 | 1.02 | 1.02 | 93 | 1017.1 |
| 20260502001149 | 13 | 22 | 0.0 | 3.2 | 0.00 | 0.99 | 0.99 | 93 | 1017.0 |
| 20260502000647 | 13 | 97 | 1.6 | 1.6 | 0.05 | 0.99 | 0.99 | 92 | 1017.0 |
| 20260502000144 | 13 | 124 | 0.0 | 3.2 | 0.05 | 0.99 | 0.99 | 92 | 1016.9 |
| 20260501235640 | 13 | 187 | 0.0 | 1.6 | 0.00 | 0.99 | 0.99 | 92 | 1016.7 |
| 20260501235136 | 13 | 121 | 3.2 | 3.2 | 0.00 | 0.99 | 0.99 | 92 | 1016.6 |
| 20260501234631 | 13 | 11 | 1.6 | 1.6 | 0.00 | 0.99 | 0.99 | 91 | 1016.8 |
| 20260501234129 | 13 | 251 | 3.2 | 3.2 | 0.00 | 0.99 | 0.99 | 92 | 1016.8 |
| 20260501233627 | 13 | 11 | 0.0 | 3.2 | 0.00 | 0.99 | 0.99 | 92 | 1016.6 |
| 20260501233124 | 13 | 257 | 0.0 | 1.6 | 0.00 | 0.99 | 0.99 | 91 | 1016.5 |
| 20260501232620 | 13 | 353 | 0.0 | 3.2 | 0.00 | 0.99 | 0.99 | 91 | 1016.4 |
| 20260501232118 | 13 | 100 | 1.6 | 3.2 | 0.05 | 0.99 | 0.99 | 89 | 1016.1 |
| 20260501231615 | 13 | 41 | 3.2 | 3.2 | 0.05 | 0.99 | 0.99 | 88 | 1016.3 |
| 20260501231114 | 14 | 84 | 1.6 | 4.8 | 0.00 | 0.99 | 0.99 | 87 | 1016.4 |
| 20260501230612 | 14 | 71 | 3.2 | 3.2 | 0.00 | 0.99 | 0.99 | 86 | 1016.3 |
| 20260501230110 | 14 | 50 | 0.0 | 3.2 | 0.00 | 0.99 | 0.99 | 86 | 1016.8 |
| 20260501225607 | 15 | 217 | 0.0 | 0.0 | 0.00 | 0.99 | 0.99 | 85 | 1016.9 |
| 20260501225103 | 15 | 339 | 0.0 | 1.6 | 0.00 | 0.99 | 0.99 | 83 | 1016.4 |
| 20260501224600 | 15 | 76 | 0.0 | 3.2 | 0.00 | 0.99 | 0.99 | 83 | 1016.1 |
| 20260501224057 | 15 | 89 | 3.2 | 3.2 | 0.00 | 0.99 | 0.99 | 83 | 1016.0 |
| 20260501223554 | 15 | 43 | 1.6 | 6.4 | 0.00 | 0.99 | 0.99 | 81 | 1016.1 |
| 20260501223050 | 15 | 13 | 1.6 | 11.3 | 0.00 | 0.99 | 0.99 | 80 | 1015.9 |
| 20260501222546 | 15 | 119 | 3.2 | 3.2 | 0.00 | 0.99 | 0.99 | 81 | 1015.7 |
| 20260501222043 | 15 | 91 | 3.2 | 6.4 | 0.00 | 0.99 | 0.99 | 80 | 1015.6 |
| 20260501221540 | 15 | 84 | 4.8 | 12.9 | 0.00 | 0.99 | 0.99 | 79 | 1015.4 |
| 20260501221037 | 15 | 131 | 11.3 | 11.3 | 0.00 | 0.99 | 0.99 | 79 | 1015.3 |
| 20260501220535 | 15 | 122 | 4.8 | 11.3 | 0.00 | 0.99 | 0.99 | 78 | 1015.2 |
| 20260501220032 | 15 | 75 | 3.2 | 4.8 | 0.00 | 0.99 | 0.99 | 80 | 1015.0 |
| 20260501215528 | 15 | 45 | 3.2 | 4.8 | 0.00 | 0.99 | 0.99 | 78 | 1015.1 |
| 20260501215023 | 15 | 17 | 0.0 | 3.2 | 0.00 | 0.99 | 0.99 | 80 | 1015.0 |
| 20260501214519 | 15 | 181 | 3.2 | 4.8 | 0.00 | 0.99 | 0.99 | 82 | 1015.0 |
| 20260501214015 | 15 | 325 | 3.2 | 6.4 | 0.00 | 0.99 | 0.99 | 82 | 1015.4 |
| 20260501213512 | 15 | 86 | 4.8 | 6.4 | 0.00 | 0.99 | 0.99 | 83 | 1015.5 |
| 20260501213008 | 15 | 114 | 3.2 | 6.4 | 0.00 | 0.99 | 0.99 | 82 | 1015.8 |
| 20260501212504 | 15 | 342 | 3.2 | 3.2 | 0.00 | 0.99 | 0.99 | 82 | 1016.1 |
| 20260501212001 | 14 | 6 | 0.0 | 6.4 | 0.00 | 0.99 | 0.99 | 80 | 1016.2 |
| 20260501211458 | 15 | 7 | 3.2 | 3.2 | 0.00 | 0.99 | 0.99 | 82 | 1016.3 |
| 20260501210956 | 15 | 353 | 0.0 | 3.2 | 0.00 | 0.99 | 0.99 | 82 | 1016.4 |
| 20260501210452 | 15 | 93 | 9.7 | 9.7 | 0.00 | 0.99 | 0.99 | 82 | 1016.3 |
| 20260501205949 | 15 | 248 | 0.0 | 4.8 | 0.00 | 0.99 | 0.99 | 82 | 1016.2 |
| 20260501205446 | 15 | 27 | 0.0 | 3.2 | 0.00 | 0.99 | 0.99 | 83 | 1016.2 |
| 20260501204943 | 15 | 102 | 3.2 | 4.8 | 0.00 | 0.99 | 0.99 | 81 | 1015.8 |
| 20260501204439 | 15 | 70 | 8.0 | 9.7 | 0.00 | 0.99 | 0.99 | 80 | 1015.6 |
| 20260501203935 | 15 | 84 | 3.2 | 14.5 | 0.00 | 0.99 | 0.99 | 79 | 1015.4 |
| 20260501203432 | 15 | 276 | 8.0 | 8.0 | 0.00 | 0.99 | 0.99 | 80 | 1015.3 |
| 20260501202930 | 15 | 43 | 4.8 | 12.9 | 0.00 | 0.99 | 0.99 | 80 | 1015.0 |
| 20260501202427 | 15 | 40 | 6.4 | 14.5 | 0.00 | 0.99 | 0.99 | 82 | 1014.6 |
| 20260501201923 | 15 | 101 | 4.8 | 9.7 | 0.00 | 0.99 | 0.99 | 83 | 1014.7 |
| 20260501201420 | 15 | 31 | 3.2 | 6.4 | 0.00 | 0.99 | 0.99 | 85 | 1014.2 |
| 20260501200917 | 15 | 52 | 8.0 | 9.7 | 0.00 | 0.99 | 0.99 | 84 | 1014.3 |
| 20260501200414 | 15 | 54 | 4.8 | 11.3 | 0.00 | 0.99 | 0.99 | 84 | 1014.5 |
| 20260501195912 | 15 | 63 | 4.8 | 9.7 | 0.00 | 0.99 | 0.99 | 86 | 1014.2 |
| 20260501195408 | 15 | 115 | 3.2 | 12.9 | 0.00 | 0.99 | 0.99 | 89 | 1014.5 |
| 20260501194904 | 14 | 19 | 8.0 | 9.7 | 0.00 | 0.99 | 0.99 | 90 | 1014.4 |
| 20260501194400 | 14 | 97 | 3.2 | 9.7 | 0.00 | 0.99 | 0.99 | 92 | 1014.5 |
| 20260501193855 | 14 | 18 | 3.2 | 6.4 | 0.00 | 0.99 | 0.99 | 94 | 1014.9 |
| 20260501193354 | 13 | 91 | 4.8 | 8.0 | 0.00 | 0.99 | 0.99 | 95 | 1014.6 |
| 20260501192852 | 13 | 78 | 3.2 | 4.8 | 0.00 | 0.99 | 0.99 | 95 | 1014.8 |
| 20260501192349 | 13 | 62 | 3.2 | 12.9 | 0.00 | 0.99 | 0.99 | 95 | 1014.8 |
| 20260501191845 | 13 | 132 | 6.4 | 12.9 | 0.00 | 0.99 | 0.99 | 95 | 1015.0 |
| 20260501191343 | 13 | 126 | 6.4 | 8.0 | 0.00 | 0.99 | 0.99 | 96 | 1015.3 |
| 20260501190839 | 13 | 88 | 4.8 | 8.0 | 0.00 | 0.99 | 0.99 | 95 | 1015.9 |
| 20260501190336 | 12 | 51 | 3.2 | 12.9 | 0.00 | 0.99 | 0.99 | 96 | 1016.1 |
| 20260501185831 | 12 | 105 | 1.6 | 4.8 | 0.00 | 0.99 | 0.99 | 96 | 1016.2 |
| 20260501185327 | 13 | 28 | 4.8 | 6.4 | 0.00 | 0.99 | 0.99 | 96 | 1016.5 |
| 20260501184823 | 13 | 77 | 4.8 | 6.4 | 0.00 | 0.99 | 0.99 | 97 | 1016.5 |
| 20260501184319 | 12 | 47 | 6.4 | 6.4 | 0.05 | 0.99 | 0.99 | 97 | 1016.5 |
| 20260501183815 | 12 | 118 | 0.0 | 8.0 | 0.05 | 0.99 | 0.99 | 97 | 1016.6 |
| 20260501183313 | 12 | 106 | 3.2 | 6.4 | 0.00 | 0.97 | 0.97 | 97 | 1017.0 |
| 20260501182809 | 12 | 26 | 3.2 | 6.4 | 0.00 | 0.97 | 0.97 | 97 | 1017.2 |
| 20260501182307 | 12 | 120 | 8.0 | 8.0 | 0.00 | 0.97 | 0.97 | 97 | 1017.1 |
| 20260501181802 | 12 | 58 | 4.8 | 4.8 | 0.00 | 0.97 | 0.97 | 97 | 1017.2 |
| 20260501181259 | 12 | 101 | 3.2 | 6.4 | 0.05 | 0.97 | 0.97 | 97 | 1016.8 |
| 20260501180757 | 12 | 82 | 4.8 | 11.3 | 0.00 | 0.97 | 0.97 | 97 | 1016.8 |
| 20260501180253 | 12 | 72 | 0.0 | 9.7 | 0.05 | 0.97 | 0.97 | 97 | 1016.7 |
| 20260501175749 | 12 | 83 | 3.2 | 3.2 | 0.00 | 0.94 | 0.94 | 97 | 1017.2 |
| 20260501175247 | 12 | 119 | 0.0 | 3.2 | 0.05 | 0.94 | 0.94 | 97 | 1017.3 |
| 20260501174743 | 12 | 123 | 3.2 | 8.0 | 0.05 | 0.94 | 0.94 | 97 | 1017.6 |
| 20260501174240 | 12 | 92 | 3.2 | 4.8 | 0.00 | 0.94 | 0.94 | 97 | 1017.6 |
| 20260501173738 | 12 | 75 | 1.6 | 4.8 | 0.05 | 0.94 | 0.94 | 97 | 1018.0 |
| 20260501173235 | 12 | 10 | 0.0 | 4.8 | 0.05 | 0.94 | 0.94 | 97 | 1018.1 |
| 20260501172731 | 12 | 60 | 4.8 | 6.4 | 0.00 | 0.94 | 0.94 | 97 | 1018.0 |
| 20260501172226 | 12 | 121 | 6.4 | 8.0 | 0.00 | 0.94 | 0.94 | 97 | 1017.9 |
| 20260501171722 | 12 | 45 | 3.2 | 9.7 | 0.05 | 0.94 | 0.94 | 97 | 1017.9 |
| 20260501171220 | 12 | 151 | 4.8 | 6.4 | 0.05 | 0.94 | 0.94 | 98 | 1017.7 |
| 20260501170717 | 12 | 77 | 3.2 | 6.4 | 0.00 | 0.91 | 0.91 | 98 | 1018.1 |